Location: Ditterswind
(50.1692°N, 10.6348°E)
Time: 08:41:18
(UTC+00:00)

SL-16 R/B - Pass Details

Date: 07 June 2020
Orbit: 986 x 1006 km, 99.5° (Epoch: 14 July)

Event Time Altitude Azimuth Distance (km) Brightness Sun altitude
Exits shadow 01:55:28 10° 205° (SSW) 2,718 4.2 -9.0°
Maximum altitude 02:00:46 31° 266° (W) 1,665 3.4 -8.5°
Drops below altitude 10° 02:06:12 10° 327° (NNW) 2,764 5.1 -7.9°
Sets 02:09:01 0° 338° (NNW) 3,721 6.0 -7.7°
